Weather History for KGSH - October, 2013

Change the Weather History Date:

Thursday, October 24, 2013

  Actual Average Record
Temperature  
Mean Temperature 36 °F -  
Max Temperature 43 °F 60 °F 80 °F (1963)
Min Temperature 30 °F 41 °F 20 °F (1981)
Degree Days  
Heating Degree Days 28    
Moisture  
Dew Point 32 °F    
Average Humidity 84    
Maximum Humidity 100    
Minimum Humidity 61    
Precipitation  
Precipitation 0.06 in - - ()
Sea Level Pressure  
Sea Level Pressure 30.12 in    
Wind  
Wind Speed 8 mph (WNW)    
Max Wind Speed 16 mph    
Max Gust Speed 21 mph    
Visibility 8 miles    
Events Rain , Snow    
Averages and records for this station are not official NWS values.
T = Trace of Precipitation, MM = Missing Value Source: NWS Daily Summary

Daily Weather History Graph

Daily Weather History Graph

Search for Another Location

Airport or City:

Trip Planner

Search our weather history database for the weather conditions in past years. The results will help you decide how hot, cold, wet, or windy it might be!

Date:

Astronomy

Oct. 24, 2013 Rise Set
Actual Time 8:05 AM EDT 6:48 PM EDT
Civil Twilight 7:37 AM EDT 7:16 PM EDT
Nautical Twilight 7:04 AM EDT 7:48 PM EDT
Astronomical Twilight 6:32 AM EDT 8:21 PM EDT
Moon 11:10 PM EDT 1:07 PM EDT
Length of Visible Light 11h 39m
Length of Day
10h 42m
Waning Gibbous, 71% of the Moon is Illuminated
Oct 24
Waning Gibbous
Oct 26
Last Quarter
Nov 3
New
Nov 10
First Quarter
Nov 17
Full

Hourly Weather History & Observations

Time (EDT) Temp. Windchill Dew Point Humidity Pressure Visibility Wind Dir Wind Speed Gust Speed Precip Events Conditions
12:35 AM 35.6 °F 28.0 °F 32.0 °F 87% 29.99 in 4.0 mi WNW 10.4 mph - 0.01 in Snow Light Snow
12:53 AM 35.1 °F 28.6 °F 33.1 °F 92% 30.01 in 7.0 mi WNW 8.1 mph - 0.01 in Snow Light Snow
1:03 AM 35.6 °F 29.9 °F 33.8 °F 93% 29.98 in 8.0 mi WNW 6.9 mph - 0.00 in Snow Light Snow
1:53 AM 35.1 °F 31.0 °F 33.1 °F 92% 30.01 in 10.0 mi SW 4.6 mph - 0.00 in   Overcast
2:53 AM 35.1 °F - 33.1 °F 92% 30.01 in 7.0 mi Calm Calm - N/A   Overcast
3:53 AM 35.1 °F 29.3 °F 32.0 °F 89% 30.01 in 10.0 mi WSW 6.9 mph - N/A   Overcast
4:53 AM 35.1 °F 29.3 °F 32.0 °F 89% 30.01 in 10.0 mi West 6.9 mph - N/A   Overcast
5:53 AM 36.0 °F 33.3 °F 33.1 °F 89% 30.02 in 9.0 mi WNW 3.5 mph - 0.00 in   Overcast
6:53 AM 35.1 °F 30.1 °F 32.0 °F 89% 30.03 in 9.0 mi WSW 5.8 mph - N/A   Overcast
7:53 AM 34.0 °F 28.0 °F 30.9 °F 89% 30.04 in 10.0 mi West 6.9 mph - N/A   Overcast
8:53 AM 35.1 °F 29.3 °F 30.9 °F 85% 30.05 in 10.0 mi WSW 6.9 mph - N/A   Overcast
9:53 AM 37.0 °F 29.8 °F 33.1 °F 86% 30.08 in 10.0 mi NW 10.4 mph - N/A   Overcast
10:53 AM 39.0 °F 31.0 °F 33.1 °F 79% 30.09 in 10.0 mi NW 13.8 mph - N/A   Overcast
11:53 AM 39.9 °F 32.1 °F 33.1 °F 77% 30.11 in 10.0 mi WNW 13.8 mph 19.6 mph N/A   Overcast
12:53 PM 41.0 °F 34.7 °F 33.1 °F 73% 30.12 in 10.0 mi NW 10.4 mph - N/A   Overcast
1:53 PM 42.1 °F 35.7 °F 32.0 °F 67% 30.12 in 10.0 mi NW 11.5 mph - N/A   Overcast
2:09 PM 42.8 °F 35.1 °F 32.0 °F 66% 30.10 in 10.0 mi West 16.1 mph - N/A   Overcast
2:33 PM 42.8 °F 35.1 °F 30.2 °F 61% 30.10 in 10.0 mi WNW 16.1 mph - N/A   Overcast
2:53 PM 43.0 °F 36.0 °F 30.9 °F 62% 30.12 in 10.0 mi West 13.8 mph - N/A   Mostly Cloudy
3:25 PM 39.2 °F 31.2 °F 32.0 °F 75% 30.12 in 10.0 mi NW 13.8 mph - 0.00 in Rain Light Rain
3:53 PM 41.0 °F 33.5 °F 32.0 °F 70% 30.15 in 10.0 mi WNW 13.8 mph - 0.00 in   Overcast
4:24 PM 37.4 °F 31.4 °F 33.8 °F 87% 30.14 in 5.0 mi NNW 8.1 mph 20.7 mph 0.01 in Snow Light Snow
4:44 PM 37.4 °F 33.8 °F 33.8 °F 87% 30.14 in 10.0 mi NW 4.6 mph - 0.02 in   Overcast
4:53 PM 37.9 °F 33.5 °F 34.0 °F 86% 30.17 in 10.0 mi WNW 5.8 mph - 0.02 in   Overcast
5:53 PM 37.0 °F 29.8 °F 34.0 °F 89% 30.19 in 4.0 mi North 10.4 mph - 0.02 in Rain Light Rain
6:32 PM 37.4 °F - 33.8 °F 87% 30.17 in 10.0 mi Calm Calm - 0.01 in   Overcast
6:53 PM 37.0 °F - 34.0 °F 89% 30.20 in 10.0 mi Calm Calm - 0.01 in   Overcast
7:53 PM 37.0 °F 32.4 °F 32.0 °F 82% 30.21 in 10.0 mi WNW 5.8 mph - N/A   Overcast
8:53 PM 36.0 °F 31.1 °F 30.9 °F 82% 30.23 in 10.0 mi West 5.8 mph - N/A   Overcast
9:53 PM 36.0 °F - 32.0 °F 86% 30.25 in 10.0 mi Calm Calm - N/A   Overcast
10:53 PM 34.0 °F - 32.0 °F 92% 30.26 in 10.0 mi Calm Calm - N/A   Clear
11:51 PM 30.2 °F 26.7 °F 30.2 °F 100% 30.25 in 1.2 mi SW 3.5 mph - N/A   Mostly Cloudy
11:53 PM 30.9 °F 27.5 °F 28.9 °F 92% 30.27 in 1.2 mi SW 3.5 mph - N/A   Mostly Cloudy
11:56 PM 30.2 °F 25.4 °F 28.4 °F 93% 30.25 in 3.0 mi SW 4.6 mph - N/A   Mostly Cloudy